Taoxian current weather conditions

sailwx.info

Wind at 1 knots

Air temperature -2.0° C
Visibility: greater than 5.4 NM
Dewpoint -13.0° C

Last reported at 2017-Nov-21 18:00 UTC.
Time now 2017-Nov-21 19:18 UTC

Location: N 41°38' E 123°29'.
View on Google Maps.

See reports from other nearby stations

  
Tides and Currents Weather Stations Pressure Air Temp Water Temp Dewpoint Dewpoint Depression Visibility Wind Speed Wind Dir Waves Ship Positions
date/time (UTC)wind fromknots sea level pressurealtimeterstation pressurevisibilityair tempwater tempwave heightnotes
2017-Nov-21 18:00 5.4-2.0
2017-Nov-21 17:30 310 5 5.4-0.0
2017-Nov-21 17:00 300 5 5.4-0.0
2017-Nov-21 16:30 320 7 5.4 1.0
2017-Nov-21 16:00 320 9 5.4 2.0
2017-Nov-21 15:30 310 11 5.4 2.0
2017-Nov-21 15:00 320 11 4.3 3.0
2017-Nov-21 14:30 300 13 3.2 4.0
2017-Nov-21 14:00 300 9 3.2 5.0
2017-Nov-21 13:30 270 15 gusting 25 5.4 6.0
2017-Nov-21 13:00 210 7 5.4 5.0
2017-Nov-21 12:30 190 9 5.4 6.0
2017-Nov-21 12:00 180 7 5.4 5.0
2017-Nov-21 11:30 180 5 5.4 4.0
2017-Nov-21 11:00 180 5 5.4 4.0
2017-Nov-21 10:30 170 3 5.4 4.0
2017-Nov-21 10:00 160 3 5.4 4.0
2017-Nov-21 09:30 180 5 5.4 5.0
2017-Nov-21 09:00 180 5 5.4 5.0
2017-Nov-21 08:30 180 7 5.4 6.0
2017-Nov-21 08:00 180 9 5.4 7.0
2017-Nov-21 07:30 190 9 5.4 7.0
2017-Nov-21 07:00 190 11 5.4 8.0
2017-Nov-21 06:30 200 11 5.4 8.0
2017-Nov-21 06:00 190 15 5.4 9.0
2017-Nov-21 05:30 190 15 5.4 8.0
2017-Nov-21 05:00 190 13 gusting 23 5.4 8.0
2017-Nov-21 04:30 190 17 5.4 8.0
2017-Nov-21 04:00 190 15 5.4 8.0
2017-Nov-21 03:30 190 15 5.4 7.0
2017-Nov-21 03:00 190 15 gusting 25 5.4 7.0
2017-Nov-21 02:30 180 15 gusting 27 5.4 6.0
2017-Nov-21 02:00 190 13 5.4 6.0
2017-Nov-21 01:30 180 11 gusting 21 5.4 5.0
2017-Nov-21 01:00 180 11 gusting 23 5.4 4.0
2017-Nov-21 00:30 180 9 gusting 19 5.4 3.0
2017-Nov-21 00:00 170 9 5.4 2.0
2017-Nov-20 23:30 160 7 5.4 1.0
2017-Nov-20 23:00 170 5 5.4-0.0
2017-Nov-20 22:30 160 7 5.4-0.0
2017-Nov-20 22:00 160 7 5.4-0.0
2017-Nov-20 21:30 140 5 5.4-2.0
2017-Nov-20 21:00 130 3 5.4-3.0
2017-Nov-20 20:30 120 3 5.4-4.0
2017-Nov-20 20:00 120 5 5.4-4.0
2017-Nov-20 19:30 120 5 5.4-4.0
2017-Nov-20 19:00 120 5 5.4-5.0
2017-Nov-20 18:30 120 5 5.4-5.0
2017-Nov-20 18:00 120 5 5.4-5.0
2017-Nov-20 17:30 110 7 5.4-6.0
2017-Nov-20 17:00 120 7 5.4-6.0
2017-Nov-20 16:30 120 7 5.4-5.0
2017-Nov-20 16:00 120 5 5.4-6.0
2017-Nov-20 15:30 120 5 5.4-5.0
2017-Nov-20 15:00 120 5 5.4-5.0
2017-Nov-20 14:30 110 5 5.4-6.0
2017-Nov-20 14:00 120 3 5.4-7.0
2017-Nov-20 13:30 170 3 5.4-7.0
2017-Nov-20 13:00 120 3 5.4-5.0
2017-Nov-20 12:30 130 3 5.4-5.0
2017-Nov-20 12:00 110 5 5.4-4.0
2017-Nov-20 11:30 120 3 5.4-4.0
2017-Nov-20 11:00 120 5 5.4-3.0
2017-Nov-20 10:30 130 3 5.4-3.0
2017-Nov-20 10:00 100 3 5.4-3.0
2017-Nov-20 09:30 100 5 5.4-2.0
2017-Nov-20 09:00 080 3 5.4-2.0
2017-Nov-20 08:30 050 5 5.4-3.0
2017-Nov-20 08:00 010 3 5.4-1.0
2017-Nov-20 07:30 340 3 5.4-0.0
2017-Nov-20 07:00 330 7 5.4-0.0
2017-Nov-20 06:30 350 9 5.4-0.0
2017-Nov-20 06:00 330 7 5.4 1.0
2017-Nov-20 05:30 310 7 5.4 1.0
2017-Nov-20 05:00 320 7 5.4 1.0
2017-Nov-20 04:30 310 5 5.4-0.0
2017-Nov-20 04:00 320 7 5.4-0.0
2017-Nov-20 03:30 320 7 5.4-0.0
2017-Nov-20 03:00 340 5 5.4-0.0
2017-Nov-20 02:30 330 3 5.4-1.0
2017-Nov-20 02:00 310 5 5.4-1.0
2017-Nov-20 01:30 290 5 5.4-2.0
2017-Nov-20 01:00 260 5 4.3-3.0
2017-Nov-20 00:30 250 3 4.3-4.0
2017-Nov-20 00:00 230 3 4.3-6.0
2017-Nov-19 23:30 5.4-8.0
2017-Nov-19 23:00 230 1 5.4-10.0
2017-Nov-19 22:30 210 1 5.4-10.0
2017-Nov-19 22:00 250 1 5.4-9.0
2017-Nov-19 21:30 5.4-10.0
2017-Nov-19 21:00 5.4-7.0
2017-Nov-19 20:30 100 3 5.4-6.0
2017-Nov-19 20:00 060 3 5.4-5.0
2017-Nov-19 19:30 090 3 5.4-5.0
2017-Nov-19 19:00 110 3 5.4-5.0